Location: Opava
(49.9500°N, 17.9170°E)
Time: 03:21:59
(UTC+01:00)

ISS - Pass Details

Date: 05 October 2020
Orbit: 417 x 420 km, 51.6° (Epoch: 25 October)

Event Time Altitude Azimuth Distance (km) Brightness Sun altitude
Rises 19:33:07 0° 286° (WNW) 2,369 2.0 -13.0°
Reaches altitude 10° 19:35:27 10° 272° (W) 1,502 0.5 -13.4°
Maximum altitude 19:38:15 24° 216° (SW) 904 -1.8 -13.8°
Drops below altitude 10° 19:41:02 10° 160° (SSE) 1,496 -1.2 -14.3°
Enters shadow 19:41:03 10° 160° (SSE) 1,497 -1.2 -14.3°
